Regional Weather Roundup
Issued by NWS

Home | Current Version | Previous Version | Graphics & Text | Print | Product List | Glossary On
Versions: 1 2 3 4 5 6 7 8 9 10 11 12 13 14 15 16 17 18 19 20 21 22 23 24 25 26 27 28 29 30 31 32 33 34 35 36 37 38 39 40 41 42 43 44 45 46 47 48 49 50
650
ASUS44 KJAN 282010
RWRMS

MISSISSIPPI HOURLY WEATHER ROUNDUP
NATIONAL WEATHER SERVICE JACKSON MS
300 PM CDT SAT MAR 28 2015

NOTE: "FAIR: INDICATES FEW OR NO CLOUDS BELOW 12,000 FEET WITH NO
SIGNIFICANT WEATHER AND/OR OBSTRUCTIONS TO VISIBILITY.

MSZ001>002-007>008-010>013-018>021-025>028-034>036-282100-
NORTHWEST MISSISSIPPI

CITY           SKY/WX    TMP DP  RH WIND       PRES   REMARKS
CLARKSDALE     CLOUDY    39  28  65 E14       30.29F WCI  31
CLEVELAND      CLOUDY    49  31  50 NE16      30.25F
GREENWOOD      CLOUDY    47  26  44 NE16      30.28S
GREENVILLE     MOSUNNY   52  31  44 E10G22    30.23F
OLIVE BRANCH   PTSUNNY   39  28  65 CALM      30.30F
OXFORD         FAIR      39  25  56 E5        30.32S
TUNICA         LGT RAIN  37  32  81 E7        30.31F WCI  32
$$

MSZ003>006-009-014>017-022>024-029>033-037>039-282100-
NORTHEAST MISSISSIPPI

CITY           SKY/WX    TMP DP  RH WIND       PRES   REMARKS
COLUMBUS AFB   CLOUDY    44  26  48 NW5       30.28F
CORINTH        FAIR      46  19  34 VRB3      30.27S
GOLDN TRIANGLE CLOUDY    45  27  49 NW5       30.29F
STARKVILLE     CLOUDY    43  30  61 CALM      30.29S
TUPELO         CLOUDY    44  23  43 E6        30.28F
$$

MSZ040-058-282100-
CENTRAL MISSISSIPPI

CITY           SKY/WX    TMP DP  RH WIND       PRES   REMARKS
JACKSON INTL   CLOUDY    54  33  45 E6        30.22F
JACKSON HAWKNS PTSUNNY   55  33  43 NE7       30.22F
MERIDIAN KEY   LGT RAIN  50  31  48 NE7       30.24F
MERIDIAN NAS   LGT RAIN  48  30  48 NE10      30.26F
RAYMOND        FAIR      57  52  82 E9        30.20F
VICKSBURG      MOSUNNY   58  37  45 E9        30.20F
$$

MSZ059>079-282100-
SOUTH MISSISSIPPI

CITY           SKY/WX    TMP DP  RH WIND       PRES   REMARKS
BROOKHAVEN     FAIR      61  43  51 CALM      30.20F
HATTIESBURG    PTSUNNY   62  37  39 VRB6      30.21F
MCCOMB         SUNNY     65  41  41 CALM      30.17F
NATCHEZ        SUNNY     68  41  37 CALM      30.15F
PINE BELT      PTSUNNY   57  34  41 E6        30.22F
$$

MSZ080>082-282100-
COASTAL MISSISSIPPI

CITY           SKY/WX    TMP DP  RH WIND       PRES   REMARKS
BAY ST LOUIS   SUNNY     64  34  32 S7        30.20F
BILOXI         SUNNY     61  40  46 SW8       30.20F
PASCAGOULA     SUNNY     62  43  49 SW10G16   30.21F
GULFPORT       SUNNY     60  39  45 SE8       30.20F
$$



USA.gov is the U.S. government's official web portal to all federal, state and local government web resources and services.